Regional Weather Roundup
Issued by NWS

Home | Current Version | Previous Version | Text Only | Print | Product List | Glossary Off
Versions: 1 2 3 4 5 6 7 8 9 10 11 12 13 14 15 16 17 18 19 20 21 22 23 24 25 26 27 28 29 30 31 32 33 34 35 36 37 38 39 40 41 42 43 44 45 46 47 48 49 50

000
ASUS43 KBIS 292202
RWRND

NORTH DAKOTA REGIONAL WEATHER ROUNDUP
NATIONAL WEATHER SERVICE BISMARCK ND
500 PM CDT WED JUL 29 2015

NOTE: "FAIR" INDICATES FEW OR NO CLOUDS BELOW 12,000 FEET WITH NO
SIGNIFICANT WEATHER AND/OR OBSTRUCTIONS TO VISIBILITY.


NDZ001>003-009>011-017-292300-
NORTHWEST NORTH DAKOTA

CITY           SKY/WX    TMP DP  RH WIND       PRES   REMARKS
WILLISTON      SUNNY     83  45  26 W25G32    30.05R
MINOT          SUNNY     82  49  31 W17G30    29.97S
MINOT AFB      SUNNY     82  52  34 W24       29.96R
$$

NDZ018>021-031>035-040>046-292300-
SOUTHWEST NORTH DAKOTA

CITY           SKY/WX    TMP DP  RH WIND       PRES   REMARKS
BISMARCK       MOSUNNY   83  48  29 W17G28    30.04F
DICKINSON      MOSUNNY   78  44  29 W17       30.09S
GARRISON         N/A     79  51  37 W16G28    30.02S
HETTINGER ARPT SUNNY     82  38  20 W18G29    30.14S
$$

NDZ004>008-012>016-024-026-027-054-292300-
NORTHEAST NORTH DAKOTA

CITY           SKY/WX    TMP DP  RH WIND       PRES   REMARKS
GRAND FORKS    MOSUNNY   80  53  39 NW23G32   29.83R
GRND FRKS AFB  SUNNY     80  55  42 NW23G29   29.85R
DEVILS LAKE    MOSUNNY   79  55  44 W29G35    29.90S
$$

NDZ022-023-025-028>030-036>039-047>053-292300-
SOUTHEAST NORTH DAKOTA

CITY           SKY/WX    TMP DP  RH WIND       PRES   REMARKS
FARGO          MOSUNNY   81  54  39 W26G35    29.91R
JAMESTOWN      MOSUNNY   79  50  36 NW26G39   29.97R
$$



USA.gov is the U.S. government's official web portal to all federal, state and local government web resources and services.